[Iaude] MPEC V142: 2023 VE4 [a=1.87,e=0.56,i=1.0,H=24.9]
    mpec at marsden.cfa.harvard.edu 
    mpec at marsden.cfa.harvard.edu
       
    Thu Nov  9 09:33:51 EST 2023
    
    
  
M.P.E.C. 2023-V142                             Issued 2023 November 9, 14:32 UT
     The Minor Planet Electronic Circulars contain information on unusual
         minor planets, routine data on comets and natural satellites,
         and occasional editorial announcements.  They are published
    on behalf of Division F of the International Astronomical Union by the
          Minor Planet Center, Smithsonian Astrophysical Observatory,
                          Cambridge, MA 02138, U.S.A.
			  
             Prepared using the Tamkin Foundation Computer Network
                              MPC at CFA.HARVARD.EDU
            URL https://www.minorplanetcenter.net/    ISSN 1523-6714
                                    2023 VE4                                    
Observations:
     K23V04E*1C2023 11 07.24666200 47 24.212+05 18 48.13         20.94GVEV142G96
     K23V04E 1C2023 11 07.26033400 47 19.460+05 18 11.27         20.52GVEV142G96
     K23V04E 1C2023 11 07.26595800 47 17.480+05 17 56.18         20.93GVEV142G96
     K23V04E KC2023 11 07.33832500 46 52.388+05 14 39.91         21.14GVEV142I52
     K23V04E KC2023 11 07.34057000 46 51.622+05 14 33.58         21.36GVEV142I52
     K23V04E KC2023 11 07.34281700 46 50.833+05 14 27.31         21.02GVEV142I52
     K23V04E KC2023 11 07.34507600 46 50.056+05 14 22.02         20.77GVEV142I52
     K23V04E KC2023 11 07.93913 00 43 34.73 +04 46 13.2                VEV142204
     K23V04E KC2023 11 07.96096 00 43 26.64 +04 45 09.0          21.0 GVEV142204
     K23V04E KC2023 11 08.08563100 42 47.33 +04 39 09.6          21.3 GVEV142H21
     K23V04E KC2023 11 08.09731800 42 42.88 +04 38 34.4          21.0 GVEV142H21
     K23V04E KC2023 11 08.09874900 42 42.33 +04 38 30.6          21.6 GVEV142H21
     K23V04E |C2023 11 08.12418 00 42 30.98 +04 39 04.6          20.6 VuEV142807
     K23V04E |C2023 11 08.13071 00 42 28.52 +04 38 44.8          20.9 VuEV142807
     K23V04E |C2023 11 08.13724 00 42 25.90 +04 38 24.2          21.1 VuEV142807
     K23V04E  C2023 11 08.28641800 41 35.917+04 29 31.08         21.64wXEV142F51
     K23V04E  C2023 11 08.29635000 41 31.994+04 29 00.55         20.98wXEV142F51
     K23V04E  C2023 11 08.31632300 41 24.022+04 27 59.35         20.50wXEV142F51
     K23V04E KC2023 11 09.10790000 36 25.988+03 44 49.06         20.81GVEV142I52
     K23V04E KC2023 11 09.10897000 36 25.484+03 44 44.95         20.83GVEV142I52
     K23V04E KC2023 11 09.11004000 36 24.995+03 44 41.93         21.19GVEV142I52
     K23V04E KC2023 11 09.11110900 36 24.566+03 44 38.00         21.22GVEV142I52
Observer details:
204 Schiaparelli Observatory.  Observers L. Buzzi, G. Galli.  0.84-m f/3.5
    reflector + CCD.
807 Cerro Tololo Observatory, La Serena.  Observers T. Linder, R. Holmes, L.
    Horn.  0.61-m f/6.5 Dall-Kirkham Astrograph + CCD.
F51 Pan-STARRS 1, Haleakala.  Observers J. Bulger, T. Lowe, P. Minguez, A.
    Schultz, I. Smith.  Measurers K. Chambers, T. de Boer, J. Fairlamb, H.
    Gao, M. Huber, C.-C. Lin, E. Magnier, Y. Ramanjooloo, R. Wainscoat, R.
    Weryk.  1.8-m Ritchey-Chretien + CCD.
G96 Mt. Lemmon Survey.  Observer D. Rankin.  Measurers E. C. Beshore, D. Fay,
    J. B. Fazekas, D. C. Fuls, A. R. Gibbs, A. D. Grauer, H. Groeller, J. K.
    Hogan, R. A. Kowalski, S. M. Larson, G. J. Leonard, D. Rankin, R. L.
    Seaman, F. C. Shelly, K. W. Wierzchos.  1.5-m reflector + 10K CCD.
H21 Astronomical Research Observatory, Westfield.  Observer R. Holmes.
    Measurers T. Linder, R. Holmes, L. Horn.  0.81-m f/4.0 astrograph + CCD.
I52 Steward Observatory, Mt. Lemmon Station.  Observer H. Groeller.  Measurers
    E. C. Beshore, D. Fay, J. B. Fazekas, D. C. Fuls, A. R. Gibbs, A. D.
    Grauer, H. Groeller, J. K. Hogan, R. A. Kowalski, S. M. Larson, G. J.
    Leonard, D. Rankin, R. L. Seaman, F. C. Shelly, K. W. Wierzchos.  1.0-m
    prime focus + CCD.
Orbital elements:
2023 VE4                                                 Earth MOID = 0.0032 AU
Epoch 2023 Sept. 13.0 TT = JDT 2460200.5                Veres                   
M 319.14918              (2000.0)            P               Q                  
n   0.38496045     Peri.  247.93767     -0.35016648     -0.93661679             
a   1.8715092      Node   222.56538     +0.86554384     -0.31884959             
e   0.5574645      Incl.    0.97479     +0.35807444     -0.14520306             
P   2.56           H   24.96          G   0.15           U   8                  
Residuals in seconds of arc
231107 G96  0.1-  0.2-    231107 204  0.1-  0.1-    231108 F51  0.3-  0.3-
231107 G96  0.2+  0.3-    231108 H21  0.1+  0.4+    231108 F51  0.4-  0.3-
231107 G96  0.1-  0.3-    231108 H21  0.2+  0.0     231109 I52  0.7+  0.0
231107 I52  0.1+  0.1+    231108 H21  0.1+  0.4+    231109 I52  0.1+  0.4-
231107 I52  0.2+  0.1-    231108 807  0.0   0.0     231109 I52  0.4-  0.2+
231107 I52  0.1-  0.2-    231108 807 (1.0+  0.2-)   231109 I52  0.1+  0.1-
231107 I52  0.1-  0.7+    231108 807 (0.3-  1.1-)
231107 204  0.0   0.2-    231108 F51  0.7-  0.1-
Ephemeris:
2023 VE4                 a,e,i = 1.87, 0.56, 1                   q = 0.8282
Date    TT    R. A. (2000) Decl.     Delta      r    Elong.  Phase     V
2023 10 10    01 42 59.1 +12 24 02   0.3154  1.3087   167.6     9.4    23.7
...
2023 10 25    01 27 09.1 +10 35 33   0.1891  1.1825   173.0     5.9    22.2
...
2023 11 02    01 08 41.1 +08 14 08   0.1312  1.1166   160.0    17.7    21.7
...
2023 11 08    00 43 15.7 +04 44 20   0.09147 1.0687   146.8    30.5    21.2
2023 11 09    00 37 05.9 +03 51 49   0.08519 1.0609   144.1    33.2    21.1
2023 11 10    00 30 04.0 +02 51 23   0.07903 1.0531   141.0    36.3    21.0
...
2023 11 16    23 12 51.2 -08 14 30   0.04614 1.0080   112.9    64.7    20.6
...
2023 11 24    17 58 06.1 -30 16 16   0.04027 0.9525    29.2   149.6    26.2
...
2023 12 09    14 59 57.4 -21 06 37   0.1322  0.8705    28.0   148.0    28.3
M. P. C. Staff               (C) Copyright 2023 MPC           M.P.E.C. 2023-V142
    
    
More information about the Iaude
mailing list